User: anonymous   Login
Location: Unspecified
(0.0000°N, 0.0000°E)
Time: 18:23:39
(UTC+00:00)
Language:

NOAA 7 - Orbit

View from above orbital plane
View from above orbital plane
View from above satellite
View from above satellite

Ground track
Ground track

The orbit data is extracted from the following two-line orbital elements,

1 12553U 81059A   18174.93853256 -.00000020 +00000-0 +13393-4 0  9997
2 12553 099.0843 169.1132 0010449 284.2245 105.3692 14.17242517911763
Epoch (UTC): 23 June 2018 22:31:29
Eccentricity: 0.0010449
inclination: 99.0843°
perigee height: 827 km
apogee height: 842 km
right ascension of ascending node: 169.1132°
argument of perigee: 284.2245°
revolutions per day: 14.17242517
mean anomaly at epoch: 105.3692°
orbit number at epoch: 91176

The dashed part of the orbit path shows where the satellite is in the earth's shadow,  

DLR